Regional Weather Roundup
Issued by NWS

Home | Current Version | Previous Version | Text Only | Print | Product List | Glossary Off
Versions: 1 2 3 4 5 6 7 8 9 10 11 12 13 14 15 16 17 18 19 20 21 22 23 24 25 26 27 28 29 30 31 32 33 34 35 36 37 38 39 40 41 42 43 44 45 46 47 48 49 50

000
ASUS44 KMEG 291700
RWRTN
TENNESSEE HOURLY STATE WEATHER ROUNDUP
NATIONAL WEATHER SERVICE MEMPHIS TN
1200 PM CDT SAT AUG 29 2015

TNZ002-004-019-021-049-052-054-088>092-291800-
WEST TENNESSEE

CITY           SKY/WX    TMP DP  RH WIND       PRES   REMARKS
MEMPHIS INTL   MOSUNNY   90  67  46 VRB5      30.09S HX  93
NWS MEMPHIS      N/A     89 N/A N/A MISG        N/A
JACKSON        SUNNY     86  72  62 S6        30.10F HX  92
DYERSBURG      MOSUNNY  N/A N/A N/A MISG        N/A
UNION CITY     SUNNY     88  73  62 VRB6      30.08S HX  96
PARIS          SUNNY     86  70  58 S8        30.11F HX  90
LEXINGTON      MOSUNNY   81  72  74 VRB7      30.12F
$$

TNZ008-025-027-028-033-062-065-066-291800-
NORTH MIDDLE TENNESSEE

CITY           SKY/WX    TMP DP  RH WIND       PRES   REMARKS
NASHVILLE      PTSUNNY   85  68  56 S7        30.14F
CLARKSVILLE    LGT RAIN  85  70  60 MISG      30.11F
SMYRNA         HVY RAIN  79  72  78 N7        30.16S
COOKEVILLE     MOSUNNY   84  72  65 S9        30.18F
CROSSVILLE     MOSUNNY   80  66  62 S9        30.24F
$$

TNZ061-075-076-078-094-096-097-291800-
SOUTH MIDDLE TENNESSEE

CITY           SKY/WX    TMP DP  RH WIND       PRES   REMARKS
FAYETTEVILLE     N/A     81  68  65 CALM      30.16F
TULLAHOMA      PTSUNNY   81  68  65 S8        30.18F
WINCHESTER     MOSUNNY   81  70  69 SE6       30.17F
COLUMBIA       PTSUNNY   82  73  74 S6        30.13F
SHELBYVILLE    PTSUNNY   82  72  69 S5        30.17F
$$

TNZ017-018-042-046-047-291800-
NORTHEAST TENNESSEE

CITY           SKY/WX    TMP DP  RH WIND       PRES   REMARKS
TRI CITIES     PTSUNNY   79  61  53 CALM      30.24F
ELIZABETHTON   SUNNY     81  59  47 CALM      30.25F
$$

TNZ012-013-036-069-073-074-291800-
CENTRAL EAST TENNESSEE

CITY           SKY/WX    TMP DP  RH WIND       PRES   REMARKS
KNOXVILLE      PTSUNNY   83  69  62 W5        30.20F
OAK RIDGE      MOSUNNY   84  64  50 S6        30.22F
GATLINBURG       N/A     84  59  42 VRB3      30.20F
$$

TNZ083-085-099-291800-
SOUTHEAST TENNESSEE

CITY           SKY/WX    TMP DP  RH WIND       PRES   REMARKS
CHATTANOOGA    PTSUNNY   84  68  58 SE10G18   30.18F
$$

SKY/WX REPORTED AS FAIR MEANS FEW OR NO CLOUDS BELOW
12 THOUSAND FEET.




USA.gov is the U.S. government's official web portal to all federal, state and local government web resources and services.